Flag for U.S.A. Weather past 2 weeks in Glendale, Arizona, U.S.A.

Now
99 °F

Sunny.


Feels Like: 97 °F
Forecast: 80 / 94 °F
Wind: No wind

Location: Phoenix-Deer Valley Municipal Airport

Current Time: Sep 15, 2014 at 6:32:05 PM

Latest Report: Sep 15, 2014 at 5:53 PM


Visibility: 10 mi

Pressure: 29.71 "Hg

Humidity: 23%

Dew point: 55 °F

Location of GlendaleLocation

Historic Weather in Glendale — Graph

°F

Glendale temperature yesterday

Maximum temperature yesterday: 97 °F (at 3:53 PM)
Minimum temperature yesterday: 81 °F (at 3:53 AM)
Average temperature yesterday: 89 °F

Past Weeks' High & Low Weather Summary

 TemperatureHumidityPressure
High103 °F (Aug 31, 4:53 PM)100% (Sep 8, 8:03 AM)29.94 "Hg (Sep 8, 8:03 AM)
Low70 °F (Sep 8, 3:53 AM)9% (Sep 1, 4:53 PM)29.54 "Hg (Sep 8, 8:03 AM)
Average88 °F40%29.75 "Hg
* Reported Aug 31 4:53 PM — Sep 15 4:53 PM, Glendale, Weather by CustomWeather, © 2014

Note: Actual official high and low records may vary slightly from our data, if they occured in-between our weather recording intervals... More about our weather records

Advertising

Glendale weather history for previous 24 hours

 ConditionsComfort  
Time TempWeatherWind HumidityBarometerVisibility
4:53 PM
Sep 15
101 °FSunny.No wind22%29.70 "Hg10 mi
3:53 PM99 °FSunny.No wind23%29.70 "Hg10 mi
2:53 PM101 °FSunny.6 mph22%29.72 "Hg10 mi
1:53 PM98 °FSunny.No wind25%29.74 "Hg10 mi
12:53 PM97 °FSunny.No wind26%29.78 "Hg10 mi
11:53 AM97 °FSunny.3 mph26%29.80 "Hg10 mi
10:53 AM95 °FSunny.6 mph28%29.81 "Hg10 mi
9:53 AM93 °FSunny.8 mph30%29.82 "Hg10 mi
8:53 AM91 °FSunny.9 mph33%29.82 "Hg10 mi
7:53 AM88 °FSunny.7 mph36%29.81 "Hg10 mi
6:53 AM85 °FSunny.6 mph39%29.80 "Hg10 mi
5:53 AM85 °FClear.No wind39%29.78 "Hg10 mi
4:53 AM85 °FClear.No wind40%29.77 "Hg10 mi
3:53 AM86 °FClear.6 mph37%29.75 "Hg10 mi
2:53 AM86 °FClear.9 mph37%29.75 "Hg10 mi
1:53 AM87 °FClear.8 mph36%29.75 "Hg10 mi
12:53 AM86 °FClear.6 mph37%29.75 "Hg10 mi
11:53 PM
Sep 14
87 °FClear.7 mph39%29.75 "Hg10 mi
10:53 PM85 °FClear.12 mph46%29.74 "Hg10 mi
9:53 PM87 °FClear.8 mph43%29.74 "Hg10 mi
8:53 PM90 °FClear.3 mph35%29.72 "Hg10 mi
7:53 PM92 °FClear.No wind33%29.70 "Hg10 mi
6:53 PM94 °FClear.No wind28%29.68 "Hg10 mi
Weather by CustomWeather, © 2014

See weather overviewHow to use our weather pages